EW7518 Weather Reports


time (UTC)temp
C
wind
direction
speed
KPH
gust
KPH
rain 1hr
cm
rain 24hr
cm
rain mn
cm
humidity
%
barometer
mb
20180821180707 30 146 1.6 6.4 0.00 0.00 0.00 43 1011.4
20180821180211 30 229 1.6 9.7 0.00 0.00 0.00 43 1011.4
20180821175708 31 163 3.2 9.7 0.00 0.00 0.00 42 1011.4
20180821175209 31 225 3.2 9.7 0.00 0.00 0.00 42 1011.4
20180821174708 31 222 3.2 9.7 0.00 0.00 0.00 41 1011.4
20180821174210 31 189 3.2 11.3 0.00 0.00 0.00 42 1011.6
20180821173708 31 211 3.2 11.3 0.00 0.00 0.00 41 1011.6
20180821173214 31 178 3.2 11.3 0.00 0.00 0.00 40 1011.6
20180821172708 31 169 3.2 9.7 0.00 0.00 0.00 39 1011.3
20180821172211 31 238 3.2 11.3 0.00 0.00 0.00 40 1011.3
20180821171709 32 173 3.2 11.3 0.00 0.00 0.00 40 1011.3
20180821171209 32 205 3.2 11.3 0.00 0.00 0.00 39 1011.2
20180821170708 32 221 4.8 17.7 0.00 0.00 0.00 39 1011.2
20180821170209 32 115 4.8 17.7 0.00 0.00 0.00 39 1011.2
20180821165708 32 123 4.8 17.7 0.00 0.00 0.00 39 1011.2
20180821165208 32 167 4.8 12.9 0.00 0.00 0.00 39 1011.2
20180821164708 32 186 4.8 17.7 0.00 0.00 0.00 39 1011.2
20180821164209 32 180 4.8 17.7 0.00 0.00 0.00 39 1011.2
20180821163708 32 202 4.8 17.7 0.00 0.00 0.00 38 1011.2
20180821163209 32 179 4.8 17.7 0.00 0.00 0.00 38 1011.2
20180821162707 33 133 4.8 17.7 0.00 0.00 0.00 38 1011.2
20180821162208 32 166 4.8 14.5 0.00 0.00 0.00 37 1011.2
20180821161708 33 188 4.8 14.5 0.00 0.00 0.00 37 1011.2
20180821161209 33 205 4.8 12.9 0.00 0.00 0.00 37 1011.2
20180821160708 33 207 4.8 17.7 0.00 0.00 0.00 37 1011.2
20180821160211 33 181 6.4 17.7 0.00 0.00 0.00 37 1011.2
20180821155708 33 234 6.4 17.7 0.00 0.00 0.00 37 1011.2
20180821155208 33 176 6.4 17.7 0.00 0.00 0.00 36 1011.2
20180821154709 33 161 6.4 17.7 0.00 0.00 0.00 37 1011.2
20180821154210 33 163 6.4 20.9 0.00 0.00 0.00 36 1011.2
20180821153708 33 141 6.4 20.9 0.00 0.00 0.00 36 1011.2
20180821153209 33 184 6.4 20.9 0.00 0.00 0.00 35 1011.2
20180821152708 33 189 4.8 12.9 0.00 0.00 0.00 35 1011.3
20180821152213 33 153 6.4 16.1 0.00 0.00 0.00 36 1011.3
20180821151709 33 203 4.8 16.1 0.00 0.00 0.00 35 1011.3
20180821151209 33 143 6.4 16.1 0.00 0.00 0.00 35 1011.4
20180821143709 33 170 6.4 16.1 0.00 0.00 0.00 35 1011.7
20180821142708 34 138 6.4 16.1 0.00 0.00 0.00 36 1011.7
20180821142212 33 150 6.4 20.9 0.00 0.00 0.00 36 1011.7
20180821141712 33 149 8.0 20.9 0.00 0.00 0.00 36 1011.7
20180821141209 33 158 8.0 20.9 0.00 0.00 0.00 37 1011.7
20180821140708 33 146 8.0 19.3 0.00 0.00 0.00 36 1011.7
20180821140210 33 171 8.0 24.1 0.00 0.00 0.00 37 1011.7
20180821135708 33 140 9.7 25.7 0.00 0.00 0.00 38 1011.7
20180821135209 33 144 9.7 25.7 0.00 0.00 0.00 38 1011.7
20180821134708 33 205 9.7 25.7 0.00 0.00 0.00 37 1011.7
20180821134209 33 150 8.0 20.9 0.00 0.00 0.00 38 1011.9
20180821133708 33 180 8.0 24.1 0.00 0.00 0.00 37 1011.9
20180821133210 33 150 9.7 24.1 0.00 0.00 0.00 37 1011.9
20180821132714 33 238 8.0 24.1 0.00 0.00 0.00 36 1011.8
20180821132209 33 173 6.4 20.9 0.00 0.00 0.00 36 1011.8
20180821131708 33 127 8.0 20.9 0.00 0.00 0.00 36 1011.8
20180821131209 33 202 8.0 20.9 0.00 0.00 0.00 36 1011.9
20180821130708 33 197 8.0 19.3 0.00 0.00 0.00 36 1011.9
20180821130209 33 186 8.0 20.9 0.00 0.00 0.00 35 1011.9
20180821125708 33 135 9.7 20.9 0.00 0.00 0.00 36 1012.1
20180821125209 33 162 9.7 20.9 0.00 0.00 0.00 35 1012.1
20180821124708 33 201 8.0 19.3 0.00 0.00 0.00 35 1012.1
20180821124210 33 141 8.0 19.3 0.00 0.00 0.00 36 1012.1
20180821123708 33 192 8.0 20.9 0.00 0.00 0.00 36 1012.1
20180821123209 33 224 8.0 20.9 0.00 0.00 0.00 36 1012.1
20180821122708 33 194 8.0 22.5 0.00 0.00 0.00 35 1012.3
20180821122209 33 207 8.0 22.5 0.00 0.00 0.00 35 1012.3
20180821121708 33 154 8.0 19.3 0.00 0.00 0.00 35 1012.3
20180821121209 33 136 6.4 17.7 0.00 0.00 0.00 35 1012.3
20180821120708 33 216 8.0 17.7 0.00 0.00 0.00 35 1012.3
20180821120209 33 169 8.0 17.7 0.00 0.00 0.00 35 1012.3
20180821115709 33 161 6.4 19.3 0.00 0.00 0.00 35 1012.3
20180821115208 33 123 6.4 19.3 0.00 0.00 0.00 35 1012.3
20180821114708 33 205 8.0 19.3 0.00 0.00 0.00 35 1012.3
20180821114210 33 184 6.4 16.1 0.00 0.00 0.00 35 1012.4
20180821113708 33 186 8.0 16.1 0.00 0.00 0.00 34 1012.4
20180821113209 34 189 6.4 16.1 0.00 0.00 0.00 34 1012.4
20180821112708 34 166 4.8 16.1 0.00 0.00 0.00 33 1012.4
20180821112210 34 202 4.8 16.1 0.00 0.00 0.00 33 1012.4
20180821111709 34 201 4.8 16.1 0.00 0.00 0.00 34 1012.4
20180821111219 34 171 6.4 16.1 0.00 0.00 0.00 33 1012.4
20180821110209 33 135 1.6 12.9 0.00 0.00 0.00 34 1012.4
20180821105713 34 186 3.2 12.9 0.00 0.00 0.00 33 1012.4
20180821105209 33 108 1.6 12.9 0.00 0.00 0.00 34 1012.4
20180821104708 33 142 3.2 11.3 0.00 0.00 0.00 34 1012.4
20180821104215 33 134 3.2 16.1 0.00 0.00 0.00 35 1012.7
20180821103209 33 78 3.2 16.1 0.00 0.00 0.00 36 1012.7
20180821102708 33 138 1.6 14.5 0.00 0.00 0.00 35 1012.8
20180821102210 33 340 1.6 14.5 0.00 0.00 0.00 34 1012.8
20180821101709 33 162 4.8 14.5 0.00 0.00 0.00 35 1012.8
20180821101210 33 114 4.8 14.5 0.00 0.00 0.00 35 1012.8
20180821100707 32 82 3.2 9.7 0.00 0.00 0.00 35 1012.8
20180821100210 32 131 4.8 9.7 0.00 0.00 0.00 36 1012.8
20180821095713 32 105 4.8 9.7 0.00 0.00 0.00 37 1012.8
20180821095209 32 177 3.2 12.9 0.00 0.00 0.00 37 1012.8
20180821094708 32 161 3.2 12.9 0.00 0.00 0.00 37 1012.8
20180821094211 32 155 4.8 11.3 0.00 0.00 0.00 36 1012.8
20180821093209 31 73 3.2 11.3 0.00 0.00 0.00 38 1012.8
20180821092708 31 11 3.2 11.3 0.00 0.00 0.00 38 1012.9
20180821092210 31 95 3.2 11.3 0.00 0.00 0.00 39 1012.9
20180821091708 31 105 3.2 12.9 0.00 0.00 0.00 39 1012.9
20180821091209 31 142 3.2 12.9 0.00 0.00 0.00 40 1012.8
20180821090708 30 62 3.2 12.9 0.00 0.00 0.00 39 1012.8
20180821090212 30 131 3.2 9.7 0.00 0.00 0.00 40 1012.8
20180821085208 30 132 3.2 12.9 0.00 0.00 0.00 41 1012.8
20180821084708 30 90 3.2 12.9 0.00 0.00 0.00 41 1012.8
20180821084209 30 118 3.2 12.9 0.00 0.00 0.00 42 1012.8
20180821083708 29 80 3.2 11.3 0.00 0.00 0.00 42 1012.8
20180821083237 28 113 3.2 12.9 0.00 0.00 0.00 44 1012.8
20180821082707 28 92 4.8 12.9 0.00 0.00 0.00 44 1012.8
20180821082212 27 88 4.8 12.9 0.00 0.00 0.00 45 1012.8
20180821081709 27 71 3.2 9.7 0.00 0.00 0.00 46 1012.8
20180821081212 26 100 1.6 4.8 0.00 0.00 0.00 47 1012.8
20180821080708 26 113 0.0 4.8 0.00 0.00 0.00 49 1012.8
20180821080210 26 65 0.0 3.2 0.00 0.00 0.00 51 1012.8
20180821075708 25 67 0.0 1.6 0.00 0.00 0.00 53 1012.8
20180821075209 25 67 0.0 1.6 0.00 0.00 0.00 55 1012.8
20180821074708 24 67 0.0 1.6 0.00 0.00 0.00 55 1012.8
20180821074209 24 67 0.0 1.6 0.00 0.00 0.00 58 1012.8
20180821073708 23 67 0.0 1.6 0.00 0.00 0.00 58 1012.8
20180821073212 23 67 0.0 1.6 0.00 0.00 0.00 60 1012.8
20180821072709 23 67 0.0 1.6 0.00 0.00 0.00 60 1012.6
20180821072210 23 67 0.0 1.6 0.00 0.00 0.00 60 1012.6
20180821071709 22 67 0.0 1.6 0.00 0.00 0.00 61 1012.6
20180821071210 22 67 0.0 1.6 0.00 0.00 0.00 62 1012.5
20180821070709 22 68 0.0 1.6 0.00 0.00 0.00 63 1012.5
20180821070211 22 68 0.0 1.6 0.00 0.00 0.00 64 1012.5
20180821065710 21 84 0.0 1.6 0.00 0.00 0.00 64 1012.5
20180821065210 21 84 0.0 1.6 0.00 0.00 0.00 65 1012.5
20180821064710 21 84 0.0 0.0 0.00 0.00 0.00 66 1012.5
20180821064211 21 84 0.0 0.0 0.00 0.00 0.00 66 1012.3
20180821063709 21 87 0.0 0.0 0.00 0.00 0.00 67 1012.3
20180821063211 21 87 0.0 0.0 0.00 0.00 0.00 67 1012.3
20180821062709 21 87 0.0 0.0 0.00 0.00 0.00 68 1012.3
20180821062210 21 87 0.0 0.0 0.00 0.00 0.00 67 1012.3
20180821061710 21 87 0.0 0.0 0.00 0.00 0.00 66 1012.3
20180821061210 21 87 0.0 0.0 0.00 0.00 0.00 66 1012.3
20180821060709 21 87 0.0 0.0 0.00 0.00 0.00 67 1012.3
20180821060211 21 87 0.0 0.0 0.00 0.00 0.00 66 1012.3
20180821055710 21 87 0.0 0.0 0.00 0.00 0.00 65 1012.3
20180821055210 21 87 0.0 0.0 0.00 0.00 0.00 66 1012.3
20180821054710 21 87 0.0 0.0 0.00 0.00 0.00 67 1012.3
20180821054211 21 87 0.0 0.0 0.00 0.00 0.00 66 1012.3
20180821053710 21 87 0.0 0.0 0.00 0.00 0.00 67 1012.3
20180821053212 21 87 0.0 0.0 0.00 0.00 0.00 67 1012.3
20180821052711 21 87 0.0 0.0 0.00 0.00 0.00 66 1012.3
20180821052213 21 87 0.0 0.0 0.00 0.00 0.00 67 1012.3
20180821051711 21 87 0.0 0.0 0.00 0.00 0.00 67 1012.3
20180821051210 21 87 0.0 0.0 0.00 0.00 0.00 66 1012.3
20180821050709 21 87 0.0 0.0 0.00 0.00 0.00 66 1012.3
20180821050210 21 87 0.0 0.0 0.00 0.00 0.00 67 1012.3
20180821045709 21 87 0.0 0.0 0.00 0.00 0.00 67 1012.3
20180821045210 21 87 0.0 0.0 0.00 0.00 0.00 67 1012.3
20180821044710 21 87 0.0 0.0 0.00 0.00 0.00 67 1012.3
20180821044210 21 87 0.0 0.0 0.00 0.00 0.00 68 1012.4
20180821043709 21 87 0.0 0.0 0.00 0.00 0.00 68 1012.4
20180821043210 21 87 0.0 0.0 0.00 0.00 0.00 68 1012.4
20180821042709 21 87 0.0 0.0 0.00 0.00 0.00 68 1012.4
20180821042210 21 87 0.0 3.2 0.00 0.00 0.00 68 1012.4
20180821041709 21 87 0.0 4.8 0.00 0.00 0.00 68 1012.4
20180821041210 21 87 0.0 4.8 0.00 0.00 0.00 69 1012.5
20180821040710 21 87 0.0 3.2 0.00 0.00 0.00 69 1012.5
20180821040213 21 95 0.0 4.8 0.00 0.00 0.00 69 1012.5
20180821035709 21 103 0.0 4.8 0.00 0.00 0.00 69 1012.7
20180821035210 21 103 1.6 4.8 0.00 0.00 0.00 70 1012.7
20180821034709 21 105 1.6 4.8 0.00 0.00 0.00 70 1012.7
20180821034210 21 119 1.6 4.8 0.00 0.00 0.00 70 1012.7
20180821033709 21 130 1.6 4.8 0.00 0.00 0.00 70 1012.7
20180821033208 21 122 1.6 3.2 0.00 0.00 0.00 70 1012.7
20180821032709 21 134 1.6 3.2 0.00 0.00 0.00 70 1012.6
20180821032210 21 136 1.6 4.8 0.00 0.00 0.00 71 1012.6
20180821031708 21 136 1.6 4.8 0.00 0.00 0.00 71 1012.6
20180821031209 21 141 1.6 4.8 0.00 0.00 0.00 71 1012.5
20180821030709 21 142 3.2 4.8 0.00 0.00 0.00 71 1012.5
20180821030210 21 137 1.6 6.4 0.00 0.00 0.00 71 1012.5
20180821025709 21 129 3.2 6.4 0.00 0.00 0.00 72 1012.5
20180821025209 21 118 3.2 4.8 0.00 0.00 0.00 72 1012.5
20180821024709 21 128 1.6 4.8 0.00 0.00 0.00 72 1012.5
20180821024211 21 117 1.6 4.8 0.00 0.00 0.00 73 1012.7
20180821023709 21 127 1.6 3.2 0.00 0.00 0.00 73 1012.7
20180821023225 21 130 1.6 4.8 0.00 0.00 0.00 72 1012.7
20180821022708 21 135 0.0 4.8 0.00 0.00 0.00 73 1012.6
20180821022210 21 141 0.0 3.2 0.00 0.00 0.00 73 1012.6
20180821021709 21 142 0.0 3.2 0.00 0.00 0.00 73 1012.6
20180821021208 21 142 0.0 3.2 0.00 0.00 0.00 73 1012.8
20180821020708 21 142 0.0 3.2 0.00 0.00 0.00 73 1012.8
20180821020210 22 142 0.0 4.8 0.00 0.00 0.00 72 1012.8
20180821015709 22 142 0.0 4.8 0.00 0.00 0.00 72 1012.8
20180821015209 22 142 0.0 4.8 0.00 0.00 0.00 72 1012.8
20180821014708 22 143 0.0 4.8 0.00 0.00 0.00 72 1012.8
20180821014210 22 144 1.6 4.8 0.00 0.00 0.00 72 1012.9
20180821013708 22 144 1.6 4.8 0.00 0.00 0.00 72 1012.9
20180821013209 22 146 1.6 4.8 0.00 0.00 0.00 72 1012.9
20180821012708 22 159 1.6 4.8 0.00 0.00 0.00 72 1012.9
20180821012210 22 163 1.6 4.8 0.00 0.00 0.00 72 1012.9
20180821011709 22 164 1.6 4.8 0.00 0.00 0.00 72 1012.9
20180821011209 22 173 0.0 0.0 0.00 0.00 0.00 72 1012.9
20180821010708 22 193 0.0 0.0 0.00 0.00 0.00 72 1012.9
20180821010210 22 193 0.0 0.0 0.00 0.00 0.00 71 1012.9
20180821005708 22 193 0.0 0.0 0.00 0.00 0.00 71 1012.9
20180821005209 22 193 0.0 0.0 0.00 0.00 0.00 71 1012.9
20180821004708 22 193 0.0 0.0 0.00 0.00 0.00 71 1012.9
20180821004210 22 193 0.0 0.0 0.00 0.00 0.00 71 1013.0
20180821003708 22 193 0.0 1.6 0.00 0.00 0.00 70 1013.0
20180821003209 22 193 0.0 4.8 0.00 0.00 0.00 70 1013.0
20180821002708 22 193 0.0 4.8 0.00 0.00 0.00 70 1013.2
20180821002211 22 193 0.0 4.8 0.00 0.00 0.00 69 1013.2
20180821001708 22 229 0.0 0.0 0.00 0.00 0.00 69 1013.2
20180821001209 22 229 0.0 0.0 0.00 0.00 0.00 69 1013.1
20180821000709 22 229 0.0 0.0 0.00 0.00 0.00 68 1013.1
20180821000209 23 230 0.0 0.0 0.00 0.00 0.00 68 1013.1
20180820235708 23 230 0.0 0.0 0.00 0.00 0.00 68 1013.1
20180820235210 23 230 0.0 0.0 0.00 0.00 0.00 68 1013.1
20180820234708 23 230 0.0 0.0 0.00 0.00 0.00 67 1013.1
20180820234210 23 230 0.0 0.0 0.00 0.00 0.00 67 1013.2
20180820233709 23 230 0.0 0.0 0.00 0.00 0.00 67 1013.2
20180820233209 23 230 0.0 0.0 0.00 0.00 0.00 67 1013.2
20180820232708 23 230 0.0 0.0 0.00 0.00 0.00 67 1013.2
20180820232210 23 230 0.0 0.0 0.00 0.00 0.00 66 1013.2
20180820231715 23 230 0.0 0.0 0.00 0.00 0.00 66 1013.2
20180820231212 23 230 0.0 0.0 0.00 0.00 0.00 65 1013.2
20180820230708 23 230 0.0 0.0 0.00 0.00 0.00 65 1013.2
20180820230209 23 230 0.0 0.0 0.00 0.00 0.00 65 1013.2
20180820225708 23 230 0.0 0.0 0.00 0.00 0.00 64 1013.1
20180820225210 24 230 0.0 0.0 0.00 0.00 0.00 63 1013.1
20180820224708 24 230 0.0 0.0 0.00 0.00 0.00 64 1013.1
20180820224215 24 230 0.0 0.0 0.00 0.00 0.00 64 1013.2
20180820223708 24 229 0.0 0.0 0.00 0.00 0.00 64 1013.2
20180820223208 24 229 0.0 0.0 0.00 0.00 0.00 63 1013.2
20180820222708 24 229 0.0 0.0 0.00 0.00 0.00 63 1013.2
20180820222209 24 229 0.0 3.2 0.00 0.00 0.00 63 1013.2
20180820221709 25 229 0.0 4.8 0.00 0.00 0.00 63 1013.2
20180820221209 25 229 1.6 4.8 0.00 0.00 0.00 63 1013.0
20180820220211 25 230 1.6 6.4 0.00 0.00 0.00 63 1013.0
20180820215709 25 238 3.2 8.0 0.00 0.00 0.00 63 1012.9
20180820215209 25 237 3.2 8.0 0.00 0.00 0.00 63 1012.9
20180820214708 25 237 3.2 6.4 0.00 0.00 0.00 63 1012.9
20180820214209 25 245 1.6 6.4 0.00 0.00 0.00 63 1012.9
20180820213708 25 244 3.2 6.4 0.00 0.00 0.00 63 1012.9
20180820213209 25 241 4.8 6.4 0.00 0.00 0.00 63 1012.9
20180820212707 25 229 3.2 6.4 0.00 0.00 0.00 63 1012.8
20180820212210 25 239 3.2 6.4 0.00 0.00 0.00 62 1012.8
20180820211708 25 234 3.2 6.4 0.00 0.00 0.00 63 1012.8
20180820211209 25 247 1.6 6.4 0.00 0.00 0.00 63 1012.9
20180820210210 25 251 3.2 6.4 0.00 0.00 0.00 63 1012.9
20180820205708 25 242 3.2 6.4 0.00 0.00 0.00 63 1012.8
20180820205214 25 246 1.6 4.8 0.00 0.00 0.00 62 1012.8
20180820204713 25 250 1.6 4.8 0.00 0.00 0.00 62 1012.8
20180820204209 25 275 1.6 4.8 0.00 0.00 0.00 62 1012.7
20180820203715 25 264 0.0 4.8 0.00 0.00 0.00 62 1012.7
20180820203214 25 271 0.0 4.8 0.00 0.00 0.00 61 1012.7
20180820202709 26 284 0.0 4.8 0.00 0.00 0.00 61 1012.6
20180820202210 26 281 0.0 3.2 0.00 0.00 0.00 60 1012.6
20180820201742 26 196 0.0 0.0 0.00 0.00 0.00 60 1012.6
20180820201209 26 196 0.0 0.0 0.00 0.00 0.00 59 1012.5
20180820200707 26 196 0.0 0.0 0.00 0.00 0.00 58 1012.5
20180820200209 26 196 0.0 0.0 0.00 0.00 0.00 58 1012.5
20180820195708 26 196 0.0 4.8 0.00 0.00 0.00 57 1012.3
20180820195213 26 196 0.0 4.8 0.00 0.00 0.00 57 1012.3
20180820194708 26 196 1.6 4.8 0.00 0.00 0.00 57 1012.3
20180820194210 27 206 1.6 8.0 0.00 0.00 0.00 57 1012.3
20180820193708 27 178 1.6 8.0 0.00 0.00 0.00 57 1012.3
20180820193209 27 175 3.2 8.0 0.00 0.00 0.00 56 1012.3
20180820192708 27 184 1.6 8.0 0.00 0.00 0.00 56 1012.3
20180820192210 27 221 1.6 9.7 0.00 0.00 0.00 56 1012.3
20180820191708 27 165 3.2 9.7 0.00 0.00 0.00 55 1012.3
20180820191209 28 188 4.8 8.0 0.00 0.00 0.00 54 1012.1
20180820190709 28 225 3.2 8.0 0.00 0.00 0.00 53 1012.1
20180820190211 28 221 3.2 8.0 0.00 0.00 0.00 53 1012.1
20180820185708 29 221 3.2 8.0 0.00 0.00 0.00 52 1011.9
20180820184708 30 194 3.2 8.0 0.00 0.00 0.00 50 1011.9
20180820184210 30 189 3.2 9.7 0.00 0.00 0.00 49 1011.9
20180820183708 30 189 3.2 9.7 0.00 0.00 0.00 48 1011.9
20180820183209 30 200 4.8 9.7 0.00 0.00 0.00 48 1011.9
20180820182708 30 180 3.2 6.4 0.00 0.00 0.00 48 1012.0
20180820182210 30 173 3.2 6.4 0.00 0.00 0.00 48 1012.0
20180820181718 31 217 3.2 6.4 0.00 0.00 0.00 47 1012.0
20180820181208 31 176 3.2 6.4 0.00 0.00 0.00 46 1011.8